This is the latest recevied weather packets stored in our database for station/object K5BOU. If no packets are shown the sender has not sent any weather packets the latest 10 day(s).
| Time | Temp. | Humidity | Pressure | Rain* | Wind** | Luminosity | Snow |
|---|---|---|---|---|---|---|---|
| 1788047073 | 33.89° C | 70% | 1012.6 hPa | 0 mm | - | 82 W/m² | - |
| 1788046772 | 33.89° C | 70% | 1012.6 hPa | 0 mm | - | 97 W/m² | - |
| 1788046467 | 34.44° C | 69% | 1012.6 hPa | 0 mm | - | 111 W/m² | - |
| 1788046166 | 34.44° C | 68% | 1012.6 hPa | 0 mm | - | 117 W/m² | - |
| 1788045861 | 34.44° C | 66% | 1012.4 hPa | 0 mm | - | 137 W/m² | - |
| 1788045556 | 34.44° C | 66% | 1012.7 hPa | 0 mm | - | 164 W/m² | - |
| 1788045251 | 34.44° C | 66% | 1012.6 hPa | 0 mm | - | 180 W/m² | - |
| 1788044947 | 33.89° C | 66% | 1012.4 hPa | 0 mm | - | 190 W/m² | - |
| 1788044645 | 34.44° C | 66% | 1012.3 hPa | 0 mm | - | 64 W/m² | - |
| 1788044344 | 35.56° C | 63% | 1012.3 hPa | 0 mm | - | 212 W/m² | - |
| 1788044040 | 35.56° C | 61% | 1012.3 hPa | 0 mm | - | 243 W/m² | - |
| 1788043736 | 36.11° C | 59% | 1012.2 hPa | 0 mm | - | 270 W/m² | - |
| 1788043431 | 35.56° C | 55% | 1012.4 hPa | 0 mm | - | 284 W/m² | - |
| 1788043130 | 35.56° C | 56% | 1012.5 hPa | 0 mm | - | 296 W/m² | - |
| 1788042826 | 36.11° C | 53% | 1012.5 hPa | 0 mm | - | 308 W/m² | - |
| 1788042525 | 36.11° C | 53% | 1012.5 hPa | 0 mm | - | 336 W/m² | - |
| 1788042220 | 36.67° C | 53% | 1012.5 hPa | 0 mm | - | 338 W/m² | - |
| 1788041916 | 36.11° C | 51% | 1012.5 hPa | 0 mm | - | 362 W/m² | - |
| 1788041611 | 36.11° C | 53% | 1012.9 hPa | 0 mm | - | 390 W/m² | - |
| 1788041311 | 36.11° C | 53% | 1012.8 hPa | 0 mm | - | 395 W/m² | - |
| 1788041010 | 36.11° C | 51% | 1012.5 hPa | 0 mm | - | 405 W/m² | - |
| 1788040709 | 36.11° C | 50% | 1012.8 hPa | 0 mm | - | 425 W/m² | - |
| 1788040404 | 36.11° C | 50% | 1012.8 hPa | 0 mm | - | 438 W/m² | - |
| 1788040099 | 36.67° C | 48% | 1012.8 hPa | 0 mm | - | 451 W/m² | - |
| 1788039793 | 36.67° C | 48% | 1012.7 hPa | 0 mm | - | 448 W/m² | - |
* Rain latest hour (hover to see other rain measurements)
** Current wind speed in m/s (hover to see current wind gust speed)